#timestamp,LO_Frequency,Hit,StdDev 
1548669615.1,286046999.1,N
1548669635.9,286046999.4,N
1548669655.7,286046998.9,N
1548669675.6,286046998.3,N
1548669695.4,286046998.9,N
1548669715.2,286046998.2,N
1548669735.6,286047001.1,N
1548669755.5,286047001.1,N
1548669775.3,286047000.8,N
1548669795.1,286047000.3,N
1548669815.9,286047000.4,N
1548669835.7,286047000.5,N
1548669855.5,286047000.3,N
1548669875.4,286047002.5,N
1548669895.2,286047004.0,N
1548669915.1,286047004.2,N
1548669916.0,286047004.2,N
1548669935.8,286047003.8,N
1548669955.6,286047001.4,N
1548669975.5,286047004.1,N
1548669995.3,286047003.0,N
1548670015.2,286047003.6,N
1548670035.9,286047003.9,N
1548670055.7,286047004.0,N
1548670075.6,286047005.9,N
1548670095.4,286047003.7,N
1548670115.2,286047004.2,N
1548670135.1,286047001.5,N
1548670136.0,286047001.5,N
1548670155.8,286047003.7,N
1548670175.7,286047005.7,N
1548670195.5,286047002.9,N
1548670215.3,286047004.8,N
1548670235.2,286047005.7,N
1548670255.0,286047003.8,N
1548670255.9,286047003.8,N
1548670275.8,286047003.8,N
1548670295.6,286047003.5,N
1548670315.4,286047003.7,N
1548670335.3,286047003.3,N
1548670355.1,286047003.1,N
1548670375.8,286047004.2,Y
1548670395.7,286047002.4,P
1548670445.6,286047002.7,E
1548670455.5,286046998.3,N
1548670475.3,286046997.1,P
1548670495.1,286046997.3,P
1548670515.9,286046999.4,N
1548670535.7,286046999.5,N
1548670555.6,286046997.2,N
1548670575.4,286046997.0,N
1548670595.2,286046997.7,N
1548670615.1,286046996.8,Y
1548670616.0,286046996.8,P
1548670635.8,286046999.6,N
1548670655.7,286046997.2,N
1548670675.5,286046996.9,N
1548670695.3,286046998.1,N
1548670715.2,286047000.8,N
1548670735.0,286046998.4,N
1548670735.9,286046998.4,N
1548670755.8,286047001.0,N
1548670775.2,286047000.8,N
1548670795.9,286047000.5,N
1548670815.7,286047001.0,N
1548670835.6,286047000.8,N
1548670855.4,286046998.3,N
1548670875.2,286047001.2,N
1548670895.1,286046998.4,N
1548670896.0,286046998.4,N
1548670915.8,286046998.1,N
1548670935.7,286047001.0,N
1548670955.5,286046998.6,N
1548670975.3,286046998.6,N
1548670995.2,286047000.7,N
1548671015.0,286046998.1,N
1548671015.9,286046998.1,N
1548671035.7,286047001.2,N
1548671055.6,286046999.9,N
1548671075.4,286047000.3,N
1548671095.3,286047002.3,N
1548671115.1,286047001.9,N
1548671135.8,286047002.7,N
1548671155.7,286046999.9,N
1548671175.5,286047000.3,N
1548671195.4,286047002.8,N
1548671215.2,286047002.3,N
1548671235.0,286047002.1,N
1548671235.9,286047002.1,N
1548671255.8,286047002.7,N
1548671275.6,286047000.2,N
1548671295.4,286047000.2,N
1548671315.3,286047000.9,N
1548671335.1,286047000.8,N
1548671355.8,286047000.5,N
1548671375.7,286047002.5,N
1548671395.5,286047000.1,N
1548671415.4,286047000.1,N
1548671435.2,286047002.5,N
1548671455.0,286047002.8,N
1548671455.9,286047002.8,N
1548671475.8,286047000.3,N
1548671495.6,286047002.7,N
1548671515.5,286047002.0,N
1548671535.3,286047002.2,N
1548671555.1,286047002.3,N
1548671575.9,286047001.9,N
1548671595.7,286047001.5,N
1548671615.5,286047002.0,N
1548671635.4,286047002.3,N
1548671655.2,286046999.8,N
1548671675.1,286047002.0,N
1548671676.0,286047002.0,N
1548671695.8,286047002.0,N
1548671715.6,286047001.5,N
1548671735.5,286047002.7,N
1548671755.3,286047002.3,N
1548671775.2,286046999.8,N
1548671795.9,286047000.1,N
1548671815.7,286046999.7,N
1548671835.6,286047000.8,N
1548671855.4,286047000.7,N
1548671875.2,286047001.0,N
1548671895.1,286047000.0,N
1548671896.0,286047000.0,N
1548671915.8,286047001.0,N
1548671935.7,286046998.2,N
1548671955.5,286047002.7,N
1548671975.3,286047002.7,N
1548671995.2,286047002.5,N
1548672015.0,286047002.5,N
1548672015.9,286047002.5,N
1548672035.7,286047002.4,N
1548672055.6,286047000.6,N
1548672075.4,286046999.9,N
1548672095.3,286047000.0,N
1548672115.1,286047000.3,N
1548672135.8,286046998.1,N
1548672155.7,286046998.5,N
1548672175.5,286047000.9,N
1548672195.4,286047000.2,N
1548672215.2,286047000.6,N
1548672235.0,286046998.9,N
1548672235.9,286046998.9,N
1548672255.8,286046999.0,N
1548672275.6,286046999.0,N
1548672295.4,286046999.5,N
1548672315.3,286046998.4,N
1548672335.1,286046999.3,N
1548672355.9,286046998.5,N
1548672375.7,286046999.9,N
1548672395.5,286046999.7,N
1548672415.4,286047002.6,N
1548672435.2,286047002.1,N
1548672455.0,286047000.1,N
1548672456.0,286047000.1,N
1548672475.8,286047000.2,N
1548672495.6,286047000.8,N
1548672515.5,286047000.8,N
1548672535.3,286046998.5,N
1548672555.1,286046998.9,N
1548672575.9,286046999.8,N
1548672595.7,286047000.5,N
1548672615.6,286047000.4,N
1548672635.4,286047000.4,N
1548672655.2,286047001.0,N
1548672675.1,286046999.8,N
1548672676.0,286046999.8,N
1548672695.8,286047002.3,N
1548672715.7,286047001.4,N
1548672735.5,286047003.9,Y
1548672755.4,286047001.9,P
1548672775.2,286047002.1,N
1548672795.0,286047002.4,N
1548672795.9,286047002.4,N
1548672815.8,286047002.7,Y
1548672835.6,286046998.6,P
1548672855.5,286046999.4,N
1548672875.3,286046998.6,N
1548672895.1,286047001.2,N
1548672915.9,286046998.2,N
1548672935.7,286046999.7,N
1548672955.6,286047000.5,N
1548672975.4,286046998.5,N
1548672995.2,286046999.5,N
1548673015.1,286046999.6,N
1548673016.0,286046999.6,N
1548673035.8,286046999.4,N
1548673055.6,286047000.3,N
1548673075.5,286047002.4,N
1548673095.3,286047001.5,N
1548673115.2,286047002.0,N
1548673135.9,286047001.6,N
1548673155.7,286047004.3,Y
1548673175.6,286046999.9,P
1548673195.4,286047000.4,P
